Laconia, NH

7:22 AM EDT on August 24, 2016 (GMT -0400)
Laconia Municipal

Weather History for KLCI - October, 2011

Change the Weather History Date:

Monday, October 17, 2011

  Actual Average Record
Temperature  
Mean Temperature 50 °F -  
Max Temperature 57 °F 58 °F 75 °F (1999)
Min Temperature 44 °F 38 °F 30 °F (1997)
Degree Days  
Heating Degree Days 14    
Moisture  
Dew Point 36 °F    
Average Humidity 54    
Maximum Humidity 76    
Minimum Humidity 36    
Precipitation  
Precipitation 0.00 in - - ()
Sea Level Pressure  
Sea Level Pressure 29.59 in    
Wind  
Wind Speed 10 mph (SW)    
Max Wind Speed 23 mph    
Max Gust Speed 30 mph    
Visibility 10 miles    
Events      
Averages and records for this station are not official NWS values.
T = Trace of Precipitation, MM = Missing Value Source: NWS Daily Summary

Daily Weather History Graph

Daily Weather History Graph

Search for Another Location

Airport or City:

Trip Planner

Search our weather history database for the weather conditions in past years. The results will help you decide how hot, cold, wet, or windy it might be!

Date:

Astronomy

Oct. 17, 2011 Rise Set
Actual Time 7:01 AM EDT 5:59 PM EDT
Civil Twilight 6:32 AM EDT 6:28 PM EDT
Nautical Twilight 5:59 AM EDT 7:01 PM EDT
Astronomical Twilight 5:26 AM EDT 7:34 PM EDT
Moon 9:29 PM EDT (10/17) 12:13 PM EDT (10/17)
Length of Visible Light 11h 55m
Length of Day
10h 57m
Waning Gibbous, 74% of the Moon is Illuminated
Oct 17
Waning Gibbous
Oct 19
Last Quarter
Oct 26
New
Nov 2
First Quarter
Nov 10
Full

Hourly Weather History & Observations

Time (EDT) Temp. Windchill Dew Point Humidity Pressure Visibility Wind Dir Wind Speed Gust Speed Precip Events Conditions
12:15 AM 53.6 °F - 41.0 °F 62% 29.58 in 10.0 mi South 5.8 mph - N/A   Overcast
12:35 AM 53.6 °F - 41.0 °F 62% 29.57 in 10.0 mi South 8.1 mph - N/A   Overcast
12:55 AM 53.6 °F - 42.8 °F 67% 29.57 in 10.0 mi South 8.1 mph - N/A   Overcast
1:15 AM 53.6 °F - 42.8 °F 67% 29.56 in 10.0 mi South 10.4 mph - N/A   Overcast
1:55 AM 53.6 °F - 42.8 °F 67% 29.53 in 10.0 mi SSW 11.5 mph 17.3 mph N/A   Mostly Cloudy
2:15 AM 53.6 °F - 42.8 °F 67% 29.53 in 10.0 mi South 13.8 mph - N/A   Mostly Cloudy
2:35 AM 53.6 °F - 42.8 °F 67% 29.52 in 10.0 mi SSW 11.5 mph 19.6 mph N/A   Overcast
2:55 AM 53.6 °F - 42.8 °F 67% 29.52 in 10.0 mi SW 11.5 mph - N/A   Mostly Cloudy
3:15 AM 51.8 °F - 42.8 °F 71% 29.52 in 10.0 mi SW 8.1 mph - N/A   Partly Cloudy
3:35 AM 51.8 °F - 42.8 °F 71% 29.52 in 10.0 mi SSW 8.1 mph - N/A   Mostly Cloudy
4:15 AM 51.8 °F - 44.6 °F 76% 29.53 in 10.0 mi SW 6.9 mph - N/A   Mostly Cloudy
4:35 AM 53.6 °F - 42.8 °F 67% 29.55 in 10.0 mi West 12.7 mph 17.3 mph N/A   Overcast
4:55 AM 51.8 °F - 42.8 °F 71% 29.56 in 10.0 mi SW 10.4 mph - N/A   Overcast
5:15 AM 50.0 °F - 39.2 °F 66% 29.57 in 10.0 mi WSW 9.2 mph - N/A   Overcast
5:35 AM 50.0 °F - 39.2 °F 66% 29.57 in 10.0 mi South 3.5 mph - N/A   Scattered Clouds
5:55 AM 48.2 °F - 39.2 °F 71% 29.58 in 10.0 mi SSW 4.6 mph - N/A   Clear
6:15 AM 46.4 °F 45.2 °F 39.2 °F 76% 29.58 in 10.0 mi WSW 3.5 mph - N/A   Clear
6:35 AM 46.4 °F 42.4 °F 37.4 °F 71% 29.59 in 10.0 mi SSW 8.1 mph - N/A   Clear
6:55 AM 44.6 °F - 37.4 °F 76% 29.58 in 10.0 mi Calm Calm - N/A   Clear
7:15 AM 44.6 °F 40.7 °F 37.4 °F 76% 29.58 in 10.0 mi SSW 6.9 mph - N/A   Clear
7:35 AM 46.4 °F 41.9 °F 37.4 °F 71% 29.59 in 10.0 mi SSW 9.2 mph - N/A   Clear
7:55 AM 46.4 °F 42.4 °F 37.4 °F 71% 29.59 in 10.0 mi SSW 8.1 mph - N/A   Clear
8:15 AM 48.2 °F - 37.4 °F 66% 29.60 in 10.0 mi South 4.6 mph - N/A   Clear
8:35 AM 50.0 °F - 37.4 °F 62% 29.61 in 10.0 mi Calm Calm - N/A   Clear
8:55 AM 51.8 °F - 39.2 °F 62% 29.62 in 10.0 mi SW 8.1 mph - N/A   Clear
9:15 AM 51.8 °F - 37.4 °F 58% 29.62 in 10.0 mi SW 9.2 mph - N/A   Clear
9:35 AM 53.6 °F - 37.4 °F 54% 29.62 in 10.0 mi SW 11.5 mph 21.9 mph N/A   Clear
9:55 AM 53.6 °F - 39.2 °F 58% 29.62 in 10.0 mi SW 13.8 mph - N/A   Clear
10:15 AM 53.6 °F - 39.2 °F 58% 29.61 in 10.0 mi SW 20.7 mph 26.5 mph N/A   Clear
10:35 AM 55.4 °F - 37.4 °F 51% 29.61 in 10.0 mi WSW 13.8 mph 23.0 mph N/A   Partly Cloudy
11:15 AM 55.4 °F - 35.6 °F 47% 29.62 in 10.0 mi WSW 19.6 mph 27.6 mph N/A   Mostly Cloudy
11:35 AM 57.2 °F - 33.8 °F 41% 29.62 in 10.0 mi WSW 23.0 mph 28.8 mph N/A   Overcast
11:55 AM 55.4 °F - 30.2 °F 38% 29.62 in 10.0 mi West 19.6 mph 28.8 mph N/A   Scattered Clouds
12:15 PM 57.2 °F - 32.0 °F 38% 29.62 in 10.0 mi WSW 16.1 mph 25.3 mph N/A   Mostly Cloudy
12:35 PM 57.2 °F - 30.2 °F 36% 29.61 in 10.0 mi WSW 19.6 mph 29.9 mph N/A   Mostly Cloudy
12:55 PM 57.2 °F - 30.2 °F 36% 29.61 in 10.0 mi WSW 19.6 mph 29.9 mph N/A   Scattered Clouds
1:15 PM 57.2 °F - 30.2 °F 36% 29.61 in 10.0 mi WSW 16.1 mph 20.7 mph N/A   Mostly Cloudy
1:35 PM 57.2 °F - 30.2 °F 36% 29.60 in 10.0 mi WSW 15.0 mph - N/A   Overcast
1:55 PM 57.2 °F - 30.2 °F 36% 29.60 in 10.0 mi WSW 12.7 mph 19.6 mph N/A   Overcast
2:15 PM 57.2 °F - 30.2 °F 36% 29.60 in 10.0 mi West 12.7 mph 24.2 mph N/A   Overcast
2:35 PM 57.2 °F - 30.2 °F 36% 29.60 in 10.0 mi West 13.8 mph - N/A   Overcast
2:55 PM 57.2 °F - 30.2 °F 36% 29.60 in 10.0 mi WSW 12.7 mph 18.4 mph N/A   Overcast
3:15 PM 57.2 °F - 32.0 °F 38% 29.60 in 10.0 mi WSW 10.4 mph - N/A   Overcast
3:35 PM 57.2 °F - 32.0 °F 38% 29.60 in 10.0 mi WSW 10.4 mph - N/A   Overcast
3:55 PM 57.2 °F - 32.0 °F 38% 29.60 in 10.0 mi WSW 11.5 mph - N/A   Overcast
4:15 PM 57.2 °F - 32.0 °F 38% 29.60 in 10.0 mi WSW 15.0 mph 23.0 mph N/A   Overcast
4:35 PM 55.4 °F - 33.8 °F 44% 29.60 in 10.0 mi SW 13.8 mph - N/A   Overcast
4:55 PM 55.4 °F - 33.8 °F 44% 29.61 in 10.0 mi SW 19.6 mph 24.2 mph N/A   Overcast
5:15 PM 55.4 °F - 33.8 °F 44% 29.61 in 10.0 mi WSW 13.8 mph 21.9 mph N/A   Overcast
5:35 PM 55.4 °F - 33.8 °F 44% 29.62 in 10.0 mi SW 9.2 mph - N/A   Overcast
5:55 PM 55.4 °F - 33.8 °F 44% 29.62 in 10.0 mi SW 9.2 mph - N/A   Overcast
6:15 PM 55.4 °F - 33.8 °F 44% 29.63 in 10.0 mi SW 8.1 mph - N/A   Overcast
6:35 PM 55.4 °F - 33.8 °F 44% 29.64 in 10.0 mi SW 8.1 mph - N/A   Overcast
6:55 PM 55.4 °F - 33.8 °F 44% 29.64 in 10.0 mi SSW 6.9 mph - N/A   Overcast
7:15 PM 53.6 °F - 33.8 °F 47% 29.64 in 10.0 mi SSW 9.2 mph - N/A   Overcast
7:35 PM 53.6 °F - 35.6 °F 51% 29.64 in 10.0 mi SSW 8.1 mph - N/A   Overcast
7:55 PM 55.4 °F - 33.8 °F 44% 29.64 in 10.0 mi South 8.1 mph - N/A   Overcast
8:15 PM 55.4 °F - 33.8 °F 44% 29.65 in 10.0 mi SSW 6.9 mph - N/A   Overcast
8:35 PM 53.6 °F - 35.6 °F 51% 29.65 in 10.0 mi SW 8.1 mph - N/A   Overcast
8:55 PM 53.6 °F - 35.6 °F 51% 29.65 in 10.0 mi West 6.9 mph - N/A   Overcast
9:15 PM 53.6 °F - 37.4 °F 54% 29.66 in 10.0 mi West 4.6 mph - N/A   Overcast
9:35 PM 53.6 °F - 37.4 °F 54% 29.66 in 10.0 mi West 5.8 mph - N/A   Overcast
9:55 PM 51.8 °F - 37.4 °F 58% 29.66 in 10.0 mi SW 4.6 mph - N/A   Overcast
10:15 PM 51.8 °F - 39.2 °F 62% 29.67 in 10.0 mi SW 4.6 mph - N/A   Overcast
10:35 PM 51.8 °F - 39.2 °F 62% 29.67 in 10.0 mi SW 5.8 mph - N/A   Overcast
11:15 PM 51.8 °F - 37.4 °F 58% 29.67 in 10.0 mi WSW 4.6 mph - N/A   Overcast
11:35 PM 51.8 °F - 37.4 °F 58% 29.66 in 10.0 mi WSW 4.6 mph - N/A   Overcast
11:55 PM 51.8 °F - 37.4 °F 58% 29.66 in 10.0 mi West 4.6 mph - N/A   Overcast